Time,TemperatureF,DewpointF,PressureIn,WindDirection,WindDirectionDegrees,WindSpeedMPH,WindSpeedGustMPH,Humidity,HourlyPrecipIn,Conditions,Clouds,dailyrainin,SoftwareType,DateUTC
2013-06-23 00:01:00,76.0,68.0,30.03,SSE,155,9.0,13.0,75,-99.99,,,-99.99,,2013-06-23 05:01:00,
2013-06-23 00:11:00,76.0,67.0,30.03,SSE,160,10.0,13.0,75,-99.99,,,-99.99,,2013-06-23 05:11:00,
2013-06-23 00:32:00,75.0,67.0,30.03,SSE,165,11.0,15.0,76,-99.99,,,-99.99,,2013-06-23 05:32:00,
2013-06-23 00:41:00,75.0,68.0,30.03,SSE,165,11.0,16.0,77,-99.99,,,-99.99,,2013-06-23 05:41:00,
2013-06-23 01:02:00,75.0,68.0,30.03,South,185,9.0,16.0,79,-99.99,,,-99.99,,2013-06-23 06:02:00,
2013-06-23 01:12:00,74.0,68.0,30.02,South,175,10.0,14.0,80,-99.99,,,-99.99,,2013-06-23 06:12:00,
2013-06-23 01:33:00,74.0,68.0,30.01,South,170,10.0,14.0,81,-99.99,,,-99.99,,2013-06-23 06:33:00,
2013-06-23 01:43:00,74.0,68.0,30.00,South,185,9.0,14.0,82,-99.99,,,-99.99,,2013-06-23 06:43:00,
2013-06-23 02:02:00,74.0,69.0,29.99,SSW,195,11.0,16.0,83,-99.99,,,-99.99,,2013-06-23 07:02:00,
2013-06-23 02:12:00,74.0,68.0,29.99,SSW,195,11.0,14.0,82,-99.99,,,-99.99,,2013-06-23 07:12:00,
2013-06-23 02:22:00,74.0,68.0,29.99,SSW,195,11.0,14.0,82,-99.99,,,-99.99,,2013-06-23 07:22:00,
2013-06-23 02:34:00,74.0,68.0,29.98,SSW,195,11.0,15.0,83,-99.99,,,-99.99,,2013-06-23 07:34:00,
2013-06-23 02:43:00,73.0,68.0,29.98,South,180,12.0,15.0,84,-99.99,,,-99.99,,2013-06-23 07:43:00,
2013-06-23 03:02:00,73.0,68.0,29.99,SSE,160,8.0,13.0,85,-99.99,,,-99.99,,2013-06-23 08:02:00,
2013-06-23 03:12:00,73.0,68.0,29.98,South,175,9.0,13.0,85,-99.99,,,-99.99,,2013-06-23 08:12:00,
2013-06-23 03:22:00,73.0,68.0,29.98,South,175,9.0,13.0,85,-99.99,,,-99.99,,2013-06-23 08:22:00,
2013-06-23 03:34:00,73.0,69.0,29.97,SSW,195,11.0,15.0,86,-99.99,,,-99.99,,2013-06-23 08:34:00,
2013-06-23 03:43:00,73.0,69.0,29.97,SSW,210,10.0,16.0,85,-99.99,,,-99.99,,2013-06-23 08:43:00,
2013-06-23 04:02:00,73.0,69.0,29.96,SSW,200,11.0,18.0,85,-99.99,,,-99.99,,2013-06-23 09:02:00,
2013-06-23 04:12:00,73.0,68.0,29.96,SSW,195,11.0,14.0,84,-99.99,,,-99.99,,2013-06-23 09:12:00,
2013-06-23 04:34:00,73.0,68.0,29.95,SSW,205,10.0,14.0,84,-99.99,,,-99.99,,2013-06-23 09:34:00,
2013-06-23 04:43:00,73.0,68.0,29.95,SW,215,9.0,14.0,85,-99.99,,,-99.99,,2013-06-23 09:43:00,
2013-06-23 05:02:00,73.0,68.0,29.96,SSW,195,7.0,11.0,84,-99.99,,,-99.99,,2013-06-23 10:02:00,
2013-06-23 05:11:00,74.0,68.0,29.95,SSW,210,9.0,11.0,84,-99.99,,,-99.99,,2013-06-23 10:11:00,
2013-06-23 05:34:00,73.0,68.0,29.98,South,175,8.0,11.0,84,-99.99,,,-99.99,,2013-06-23 10:34:00,
2013-06-23 05:43:00,73.0,68.0,29.97,SSW,195,9.0,12.0,84,-99.99,,,-99.99,,2013-06-23 10:43:00,
2013-06-23 06:01:00,73.0,68.0,29.98,SSW,200,6.0,9.0,85,-99.99,,,-99.99,,2013-06-23 11:01:00,
2013-06-23 06:11:00,73.0,68.0,29.98,South,185,6.0,8.0,85,-99.99,,,-99.99,,2013-06-23 11:11:00,
2013-06-23 06:22:00,73.0,68.0,29.98,South,185,6.0,8.0,85,-99.99,,,-99.99,,2013-06-23 11:22:00,
2013-06-23 06:33:00,73.0,68.0,29.98,SSW,205,6.0,8.0,85,-99.99,,,-99.99,,2013-06-23 11:33:00,
2013-06-23 06:43:00,73.0,68.0,29.98,South,185,7.0,11.0,86,-99.99,,,-99.99,,2013-06-23 11:43:00,
2013-06-23 07:01:00,73.0,68.0,29.98,South,190,7.0,10.0,85,-99.99,,,-99.99,,2013-06-23 12:01:00,
2013-06-23 07:12:00,73.0,69.0,29.98,South,185,8.0,11.0,86,-99.99,,,-99.99,,2013-06-23 12:12:00,
2013-06-23 07:33:00,73.0,68.0,29.99,South,180,9.0,11.0,86,-99.99,,,-99.99,,2013-06-23 12:33:00,
2013-06-23 07:42:00,73.0,68.0,29.99,South,185,9.0,12.0,86,-99.99,,,-99.99,,2013-06-23 12:42:00,
2013-06-23 08:02:00,74.0,69.0,29.99,SSW,195,9.0,13.0,85,-99.99,,,-99.99,,2013-06-23 13:02:00,
2013-06-23 08:11:00,75.0,70.0,29.99,SSW,195,11.0,17.0,84,-99.99,,,-99.99,,2013-06-23 13:11:00,
2013-06-23 08:34:00,76.0,70.0,29.98,SSW,200,10.0,18.0,82,-99.99,,,-99.99,,2013-06-23 13:34:00,
2013-06-23 08:43:00,77.0,70.0,29.99,South,190,12.0,15.0,81,-99.99,,,-99.99,,2013-06-23 13:43:00,
2013-06-23 09:04:00,78.0,71.0,29.99,SW,215,14.0,19.0,78,-99.99,,,-99.99,,2013-06-23 14:04:00,
2013-06-23 09:11:00,79.0,71.0,29.99,SSW,210,11.0,19.0,77,-99.99,,,-99.99,,2013-06-23 14:11:00,
2013-06-23 09:22:00,79.0,71.0,29.99,SSW,210,11.0,19.0,77,-99.99,,,-99.99,,2013-06-23 14:22:00,
2013-06-23 09:34:00,81.0,72.0,29.99,SSW,210,14.0,20.0,75,-99.99,,,-99.99,,2013-06-23 14:34:00,
2013-06-23 09:44:00,81.0,72.0,29.99,SSW,205,15.0,20.0,74,-99.99,,,-99.99,,2013-06-23 14:44:00,
2013-06-23 10:05:00,82.0,72.0,29.99,SSW,210,16.0,23.0,71,-99.99,,,-99.99,,2013-06-23 15:05:00,
2013-06-23 10:11:00,83.0,72.0,29.99,SW,220,14.0,19.0,71,-99.99,,,-99.99,,2013-06-23 15:11:00,
2013-06-23 10:23:00,83.0,72.0,29.99,SW,220,14.0,19.0,71,-99.99,,,-99.99,,2013-06-23 15:23:00,
2013-06-23 10:35:00,85.0,72.0,29.99,SW,230,14.0,23.0,66,-99.99,,,-99.99,,2013-06-23 15:35:00,
2013-06-23 10:43:00,85.0,72.0,29.99,SW,230,14.0,22.0,65,-99.99,,,-99.99,,2013-06-23 15:43:00,
2013-06-23 11:06:00,86.0,72.0,29.99,SW,230,15.0,22.0,64,-99.99,,,-99.99,,2013-06-23 16:06:00,
2013-06-23 11:12:00,85.0,71.0,29.99,SSW,210,14.0,23.0,63,-99.99,,,-99.99,,2013-06-23 16:12:00,
2013-06-23 11:22:00,85.0,71.0,29.99,SSW,210,14.0,23.0,63,-99.99,,,-99.99,,2013-06-23 16:22:00,
2013-06-23 11:36:00,87.0,72.0,29.99,SW,225,15.0,23.0,62,-99.99,,,-99.99,,2013-06-23 16:36:00,
2013-06-23 11:43:00,87.0,72.0,29.99,SW,225,17.0,23.0,61,-99.99,,,-99.99,,2013-06-23 16:43:00,
2013-06-23 11:53:00,88.0,71.0,30.00,SW,235,15.0,19.0,58,-99.99,,,-99.99,,2013-06-23 16:53:00,
2013-06-23 12:05:00,88.0,71.0,30.00,SW,235,15.0,19.0,58,-99.99,,,-99.99,,2013-06-23 17:05:00,
2013-06-23 12:12:00,88.0,71.0,30.00,SW,225,16.0,22.0,58,-99.99,,,-99.99,,2013-06-23 17:12:00,
2013-06-23 12:33:00,89.0,72.0,30.01,SW,230,13.0,20.0,58,-99.99,,,-99.99,,2013-06-23 17:33:00,
2013-06-23 12:43:00,89.0,71.0,30.00,SW,230,13.0,21.0,57,-99.99,,,-99.99,,2013-06-23 17:43:00,
2013-06-23 12:53:00,89.0,71.0,30.01,WSW,250,11.0,16.0,54,-99.99,,,-99.99,,2013-06-23 17:53:00,
2013-06-23 13:01:00,89.0,71.0,30.01,WSW,250,11.0,16.0,54,-99.99,,,-99.99,,2013-06-23 18:01:00,
2013-06-23 13:12:00,91.0,72.0,30.01,SW,235,12.0,19.0,55,-99.99,,,-99.99,,2013-06-23 18:12:00,
2013-06-23 13:22:00,91.0,72.0,30.01,SW,235,12.0,19.0,55,-99.99,,,-99.99,,2013-06-23 18:22:00,
2013-06-23 13:34:00,90.0,72.0,30.01,SW,235,12.0,17.0,55,-99.99,,,-99.99,,2013-06-23 18:34:00,
2013-06-23 13:42:00,90.0,72.0,30.00,SSW,210,11.0,16.0,55,-99.99,,,-99.99,,2013-06-23 18:42:00,
2013-06-23 14:01:00,91.0,73.0,30.00,WSW,250,10.0,15.0,57,-99.99,,,-99.99,,2013-06-23 19:01:00,
2013-06-23 14:11:00,90.0,72.0,30.00,WSW,255,12.0,17.0,56,-99.99,,,-99.99,,2013-06-23 19:11:00,
2013-06-23 14:21:00,90.0,72.0,30.00,WSW,255,12.0,17.0,56,-99.99,,,-99.99,,2013-06-23 19:21:00,
2013-06-23 14:32:00,90.0,72.0,29.99,SSW,210,11.0,16.0,56,-99.99,,,-99.99,,2013-06-23 19:32:00,
2013-06-23 14:43:00,90.0,71.0,29.99,SSW,195,12.0,19.0,53,-99.99,,,-99.99,,2013-06-23 19:43:00,
2013-06-23 15:02:00,90.0,72.0,29.98,SSW,195,13.0,18.0,55,-99.99,,,-99.99,,2013-06-23 20:02:00,
2013-06-23 15:12:00,90.0,71.0,29.98,SSW,210,12.0,20.0,54,-99.99,,,-99.99,,2013-06-23 20:12:00,
2013-06-23 15:24:00,90.0,71.0,29.98,SSW,210,12.0,20.0,54,-99.99,,,-99.99,,2013-06-23 20:24:00,
2013-06-23 15:33:00,90.0,72.0,29.97,SW,220,10.0,17.0,55,-99.99,,,-99.99,,2013-06-23 20:33:00,
2013-06-23 15:42:00,90.0,72.0,29.96,SSW,205,12.0,18.0,55,-99.99,,,-99.99,,2013-06-23 20:42:00,
2013-06-23 15:53:00,89.0,73.0,29.96,WSW,255,7.0,19.0,60,-99.99,,,-99.99,,2013-06-23 20:53:00,
2013-06-23 16:01:00,89.0,73.0,29.96,WSW,255,7.0,19.0,60,-99.99,,,-99.99,,2013-06-23 21:01:00,
2013-06-23 16:11:00,90.0,73.0,29.96,South,180,11.0,15.0,58,-99.99,,,-99.99,,2013-06-23 21:11:00,
2013-06-23 16:22:00,90.0,73.0,29.96,South,180,11.0,15.0,58,-99.99,,,-99.99,,2013-06-23 21:22:00,
2013-06-23 16:34:00,91.0,72.0,29.95,SW,230,12.0,18.0,54,-99.99,,,-99.99,,2013-06-23 21:34:00,
2013-06-23 16:44:00,91.0,71.0,29.95,SW,215,15.0,19.0,53,-99.99,,,-99.99,,2013-06-23 21:44:00,
2013-06-23 17:01:00,90.0,73.0,29.94,SW,225,11.0,18.0,56,-99.99,,,-99.99,,2013-06-23 22:01:00,
2013-06-23 17:12:00,90.0,73.0,29.94,SSW,195,12.0,18.0,57,-99.99,,,-99.99,,2013-06-23 22:12:00,
2013-06-23 17:32:00,90.0,74.0,29.93,SSW,205,13.0,18.0,59,-99.99,,,-99.99,,2013-06-23 22:32:00,
2013-06-23 17:43:00,90.0,74.0,29.93,SSW,195,13.0,20.0,59,-99.99,,,-99.99,,2013-06-23 22:43:00,
2013-06-23 18:01:00,90.0,71.0,29.92,SW,220,13.0,17.0,53,-99.99,,,-99.99,,2013-06-23 23:01:00,
2013-06-23 18:11:00,90.0,73.0,29.92,SSW,195,13.0,21.0,59,-99.99,,,-99.99,,2013-06-23 23:11:00,
2013-06-23 18:33:00,89.0,74.0,29.92,South,185,11.0,16.0,61,-99.99,,,-99.99,,2013-06-23 23:33:00,
2013-06-23 18:44:00,89.0,73.0,29.92,South,180,13.0,18.0,58,-99.99,,,-99.99,,2013-06-23 23:44:00,
2013-06-23 18:52:00,89.0,72.0,29.92,South,185,12.0,17.0,58,-99.99,,,-99.99,,2013-06-23 23:52:00,
2013-06-23 19:01:00,89.0,72.0,29.92,South,185,12.0,17.0,58,-99.99,,,-99.99,,2013-06-24 00:01:00,
2013-06-23 19:11:00,89.0,73.0,29.92,South,190,11.0,15.0,60,-99.99,,,-99.99,,2013-06-24 00:11:00,
2013-06-23 19:33:00,88.0,73.0,29.92,South,190,12.0,15.0,60,-99.99,,,-99.99,,2013-06-24 00:33:00,
2013-06-23 19:42:00,88.0,72.0,29.92,South,185,10.0,15.0,60,-99.99,,,-99.99,,2013-06-24 00:42:00,
2013-06-23 20:02:00,87.0,73.0,29.93,South,180,10.0,12.0,63,-99.99,,,-99.99,,2013-06-24 01:02:00,
2013-06-23 20:11:00,87.0,73.0,29.93,South,180,10.0,16.0,63,-99.99,,,-99.99,,2013-06-24 01:11:00,
2013-06-23 20:32:00,86.0,73.0,29.92,South,185,12.0,18.0,65,-99.99,,,-99.99,,2013-06-24 01:32:00,
2013-06-23 20:42:00,86.0,72.0,29.94,South,180,10.0,17.0,65,-99.99,,,-99.99,,2013-06-24 01:42:00,
2013-06-23 20:53:00,85.0,72.0,29.95,SSE,165,9.0,13.0,66,-99.99,,,-99.99,,2013-06-24 01:53:00,
2013-06-23 21:02:00,85.0,72.0,29.95,SSE,165,9.0,13.0,66,-99.99,,,-99.99,,2013-06-24 02:02:00,
2013-06-23 21:11:00,85.0,72.0,29.96,South,175,8.0,12.0,66,-99.99,,,-99.99,,2013-06-24 02:11:00,
2013-06-23 21:33:00,84.0,72.0,29.97,South,175,9.0,13.0,67,-99.99,,,-99.99,,2013-06-24 02:33:00,
2013-06-23 21:42:00,84.0,72.0,29.97,SSE,165,9.0,12.0,69,-99.99,,,-99.99,,2013-06-24 02:42:00,
2013-06-23 22:01:00,83.0,73.0,29.97,South,175,7.0,12.0,72,-99.99,,,-99.99,,2013-06-24 03:01:00,
2013-06-23 22:11:00,82.0,73.0,29.97,South,180,8.0,11.0,73,-99.99,,,-99.99,,2013-06-24 03:11:00,
2013-06-23 22:33:00,82.0,73.0,29.98,South,170,8.0,12.0,73,-99.99,,,-99.99,,2013-06-24 03:33:00,
2013-06-23 22:43:00,82.0,72.0,29.99,South,170,7.0,13.0,73,-99.99,,,-99.99,,2013-06-24 03:43:00,
2013-06-23 23:02:00,81.0,72.0,30.00,SSE,150,9.0,14.0,74,-99.99,,,-99.99,,2013-06-24 04:02:00,
2013-06-23 23:12:00,81.0,72.0,30.00,SSE,155,8.0,12.0,74,-99.99,,,-99.99,,2013-06-24 04:12:00,
2013-06-23 23:22:00,81.0,72.0,30.00,SSE,155,8.0,12.0,74,-99.99,,,-99.99,,2013-06-24 04:22:00,
2013-06-23 23:33:00,81.0,72.0,30.01,SSE,165,10.0,15.0,76,-99.99,,,-99.99,,2013-06-24 04:33:00,
2013-06-23 23:43:00,81.0,72.0,30.01,SSE,165,12.0,17.0,76,-99.99,,,-99.99,,2013-06-24 04:43:00,
2013-06-23 23:52:00,81.0,73.0,30.01,SSE,165,10.0,14.0,77,-99.99,,,-99.99,,2013-06-24 04:52:00,